VE6RWM-WX Weather Reports


time (UTC)temp
C
wind
direction
speed
KPH
gust
KPH
rain 1hr
cm
rain 24hr
cm
rain mn
cm
humidity
%
barometer
mb
20260906220005 0 185 0.0 9.7 0.00 0.00 0.00 79 868.1
20260906210005 0 158 0.0 4.8 0.00 0.00 0.00 79 868.1
20260906200008 0 142 0.0 4.8 0.00 0.00 0.00 79 868.1
20260906190005 0 136 0.0 4.8 0.00 0.00 0.00 79 868.1
20260906180005 0 196 0.0 8.0 0.00 0.00 0.00 79 868.1
20260906170005 0 109 0.0 4.8 0.00 0.00 0.00 79 868.1
20260906160005 0 148 0.0 4.8 0.00 0.00 0.00 79 868.1
20260906150005 0 147 0.0 3.2 0.00 0.00 0.00 79 868.1
20260906130005 0 129 0.0 3.2 0.00 0.00 0.00 79 868.1
20260906120005 0 130 0.0 3.2 0.00 0.00 0.00 79 868.1
20260906110006 0 99 0.0 4.8 0.00 0.00 0.00 79 868.1
20260906100011 0 146 0.0 4.8 0.00 0.00 0.00 79 868.1
20260906090005 0 206 0.0 4.8 0.00 0.00 0.00 79 868.1
20260906080005 0 296 0.0 4.8 0.00 0.00 0.00 79 868.1
20260906070005 0 129 0.0 3.2 0.00 0.00 0.00 79 868.1
20260906060013 0 133 0.0 4.8 0.00 0.00 0.00 79 868.1
20260906040005 0 82 0.0 4.8 0.00 0.00 0.00 79 868.1
20260906030006 0 94 0.0 3.2 0.00 0.00 0.00 79 868.1
20260906020005 0 126 0.0 3.2 0.00 0.00 0.00 79 868.1
20260906010005 0 137 0.0 3.2 0.00 0.00 0.00 79 868.1
20260906000005 0 104 0.0 4.8 0.00 0.00 0.00 79 868.1